Location: Unspecified
(0.0000°N, 0.0000°E)
Time: 04:04:52
(UTC+00:00)

Tiangong - Pass Details

Date: 01 October 2022
Orbit: 377 x 383 km, 41.5° (Epoch: 25 September)

Event Time Altitude Azimuth Distance (km) Brightness Sun altitude
Rises 19:05:06 0° 243° (WSW) 2,233 3.0 -18.8°
Reaches altitude 10° 19:07:21 10° 256° (WSW) 1,379 1.8 -19.4°
Maximum altitude 19:10:02 27° 316° (NW) 764 -0.3 -20.1°
Enters shadow 19:11:01 22° 348° (NNW) 868 -0.3 -20.3°
